This is the latest recevied weather packets stored in our database for station/object KO4RMV-3. If no packets are shown the sender has not sent any weather packets the latest 10 day(s).
| Time | Temp. | Humidity | Pressure | Rain* | Wind** | Luminosity | Snow |
|---|---|---|---|---|---|---|---|
| 1777916706 | 23.33° C | 33% | - | 0 mm | - | - | - |
| 1777915806 | 24.44° C | 31% | - | 0 mm | - | - | - |
| 1777914905 | 24.44° C | 29% | - | 0 mm | - | - | - |
| 1777914005 | 25.56° C | 31% | - | 0 mm | - | - | - |
| 1777913105 | 23.89° C | 30% | - | 0 mm | - | - | - |
| 1777912205 | 24.44° C | 30% | - | 0 mm | - | - | - |
| 1777911305 | 23.89° C | 30% | - | 0 mm | - | - | - |
| 1777910405 | 23.89° C | 29% | - | 0 mm | - | - | - |
| 1777909505 | 24.44° C | 31% | - | 0 mm | - | - | - |
| 1777908605 | 23.33° C | 32% | - | 0 mm | - | - | - |
| 1777907705 | 22.22° C | 35% | - | 0 mm | - | - | - |
| 1777906805 | 21.67° C | 36% | - | 0 mm | - | - | - |
| 1777905905 | 21.11° C | 35% | - | 0 mm | - | - | - |
| 1777905005 | 20° C | 38% | - | 0 mm | - | - | - |
| 1777904105 | 19.44° C | 38% | - | 0 mm | - | - | - |
| 1777903206 | 18.33° C | 43% | - | 0 mm | - | - | - |
| 1777902306 | 17.78° C | 44% | - | 0 mm | - | - | - |
| 1777901406 | 16.67° C | 46% | - | 0 mm | - | - | - |
| 1777900506 | 15.56° C | 50% | - | 0 mm | - | - | - |
| 1777899606 | 15° C | 50% | - | 0 mm | - | - | - |
| 1777898706 | 14.44° C | 51% | - | 0 mm | - | - | - |
| 1777897806 | 13.33° C | 56% | - | 0 mm | - | - | - |
| 1777896905 | 12.22° C | 58% | - | 0 mm | - | - | - |
| 1777896005 | 11.11° C | 61% | - | 0 mm | - | - | - |
| 1777895105 | 10.56° C | 62% | - | 0 mm | - | - | - |
* Rain latest hour (hover to see other rain measurements)
** Current wind speed in m/s (hover to see current wind gust speed)